TimeAKDT,TemperatureF,Dew PointF,Humidity,Sea Level PressureIn,VisibilityMPH,Wind Direction,Wind SpeedMPH,Gust SpeedMPH,PrecipitationIn,Events,Conditions,WindDirDegrees,DateUTC
12:53 AM,46.9,44.1,90,30.08,10.0,WSW,3.5,-,N/A,,Overcast,250,2012-10-09 08:53:00
1:53 AM,46.9,45.0,93,30.08,10.0,Calm,Calm,-,N/A,,Overcast,0,2012-10-09 09:53:00
2:53 AM,46.0,44.1,93,30.07,10.0,Calm,Calm,-,N/A,,Overcast,0,2012-10-09 10:53:00
3:53 AM,46.0,44.1,93,30.07,10.0,Calm,Calm,-,N/A,,Overcast,0,2012-10-09 11:53:00
4:53 AM,45.0,43.0,93,30.07,8.0,Calm,Calm,-,0.00,,Light Drizzle,0,2012-10-09 12:53:00
5:22 AM,44.6,42.8,93,30.07,6.0,NW,3.5,-,0.00,,Light Drizzle,310,2012-10-09 13:22:00
5:53 AM,45.0,44.1,97,30.06,10.0,Calm,Calm,-,0.00,,Overcast,0,2012-10-09 13:53:00
6:09 AM,44.6,44.6,100,30.06,10.0,Calm,Calm,-,N/A,,Overcast,0,2012-10-09 14:09:00
6:53 AM,44.1,43.0,96,30.06,7.0,WSW,4.6,-,0.01,,Light Drizzle,240,2012-10-09 14:53:00
7:53 AM,44.1,43.0,96,30.07,7.0,Calm,Calm,-,0.00,,Light Drizzle,0,2012-10-09 15:53:00
8:53 AM,45.0,44.1,97,30.07,7.0,Calm,Calm,-,0.01,,Light Drizzle,0,2012-10-09 16:53:00
9:53 AM,48.0,44.1,86,30.08,10.0,Calm,Calm,-,0.00,,Mostly Cloudy,0,2012-10-09 17:53:00
10:53 AM,48.0,43.0,83,30.07,10.0,Calm,Calm,-,N/A,,Mostly Cloudy,0,2012-10-09 18:53:00
11:53 AM,48.0,44.1,86,30.07,10.0,Calm,Calm,-,N/A,,Overcast,0,2012-10-09 19:53:00
12:53 PM,48.9,43.0,80,30.07,10.0,WSW,8.1,-,N/A,,Overcast,240,2012-10-09 20:53:00
1:20 PM,48.2,42.8,82,30.07,10.0,WSW,8.1,-,N/A,,Overcast,240,2012-10-09 21:20:00
1:53 PM,46.9,42.1,83,30.06,10.0,SW,8.1,-,N/A,,Overcast,230,2012-10-09 21:53:00
2:53 PM,48.0,42.1,80,30.06,10.0,WSW,6.9,-,N/A,,Mostly Cloudy,240,2012-10-09 22:53:00
3:53 PM,48.9,42.1,77,30.05,10.0,WSW,4.6,-,N/A,,Mostly Cloudy,240,2012-10-09 23:53:00
4:53 PM,48.0,42.1,80,30.06,10.0,SW,3.5,-,N/A,,Mostly Cloudy,230,2012-10-10 00:53:00
5:53 PM,48.0,42.1,80,30.06,10.0,Calm,Calm,-,N/A,,Mostly Cloudy,0,2012-10-10 01:53:00
6:53 PM,48.0,43.0,83,30.06,10.0,Calm,Calm,-,N/A,,Overcast,0,2012-10-10 02:53:00
7:53 PM,46.9,44.1,90,30.07,10.0,Calm,Calm,-,N/A,,Overcast,0,2012-10-10 03:53:00
8:53 PM,46.0,43.0,89,30.07,10.0,WNW,3.5,-,N/A,,Overcast,300,2012-10-10 04:53:00
9:53 PM,46.0,42.1,86,30.08,10.0,Calm,Calm,-,N/A,,Overcast,0,2012-10-10 05:53:00
10:53 PM,45.0,41.0,86,30.09,10.0,Calm,Calm,-,N/A,,Overcast,0,2012-10-10 06:53:00
11:53 PM,46.0,42.1,86,30.09,10.0,Calm,Calm,-,N/A,,Overcast,0,2012-10-10 07:53:00